User: anonymous   Login
Location: Terra Rouge Observatory
(46.0000°N, 62.7500°W)
Time: 17:39:12
(UTC-03:00)
Language:

Landsat 5 - Orbit

View from above orbital plane
View from above orbital plane
View from above satellite
View from above satellite

Ground track
Ground track

The orbit data is extracted from the following two-line orbital elements,

1 14780U 84021A   15142.19510683  .00002541  00000-0  24667-3 0  9991
2 14780 098.0297 230.1065 0094151 139.8506 220.9717 14.90290542663072
Epoch (UTC): 22 May 2015 04:40:57
Eccentricity: 0.0094151
inclination: 98.0297°
perigee height: 531 km
apogee height: 663 km
right ascension of ascending node: 230.1065°
argument of perigee: 139.8506°
revolutions per day: 14.90290542
mean anomaly at epoch: 220.9717°
orbit number at epoch: 66307

The dashed part of the orbit path shows where the satellite is in the earth's shadow,  

DLR